CW0181 Weather Reports


Display with metric or nautical units.
time (UTC)temp
F
wind
direction
speed
MPH
gust
MPH
rain 1hr
in
rain 24hr
in
rain mn
in
humidity
%
barometer
mb
20260507232104 65 257 13.0 16.0 0.00 0.00 0.00 86 1013.9
20260507231104 65 258 13.0 18.0 0.00 0.00 0.00 86 1013.9
20260507230604 65 257 13.0 16.0 0.00 0.00 0.00 86 1014.0
20260507230104 65 256 13.0 17.0 0.00 0.00 0.00 86 1014.1
20260507225604 65 255 12.0 17.0 0.00 0.00 0.00 86 1014.1
20260507225104 65 258 13.0 17.0 0.00 0.00 0.00 85 1014.0
20260507224603 65 254 13.0 16.0 0.00 0.00 0.00 85 1014.0
20260507224105 65 259 12.0 17.0 0.00 0.00 0.00 85 1014.2
20260507223604 65 252 12.0 17.0 0.00 0.00 0.00 85 1014.3
20260507223104 65 253 13.0 20.0 0.00 0.00 0.00 85 1014.3
20260507222604 65 257 13.0 18.0 0.00 0.00 0.00 85 1014.3
20260507222104 65 258 13.0 18.0 0.00 0.00 0.00 85 1014.4
20260507221604 65 255 12.0 17.0 0.00 0.00 0.00 85 1014.5
20260507220603 65 253 13.0 18.0 0.00 0.00 0.00 85 1014.6
20260507220104 65 257 13.0 18.0 0.00 0.00 0.00 84 1014.7
20260507215604 65 255 11.0 16.0 0.00 0.00 0.00 85 1014.7
20260507215104 65 257 12.0 16.0 0.00 0.00 0.00 84 1014.8
20260507214604 66 256 12.0 17.0 0.00 0.00 0.00 84 1014.9
20260507214104 65 253 11.0 15.0 0.00 0.00 0.00 85 1014.9
20260507213604 65 254 12.0 15.0 0.00 0.00 0.00 85 1014.9
20260507213103 65 257 12.0 14.0 0.00 0.00 0.00 84 1015.0
20260507212603 66 256 12.0 15.0 0.00 0.00 0.00 83 1015.0
20260507212104 66 252 11.0 14.0 0.00 0.00 0.00 84 1015.1
20260507211604 66 258 11.0 15.0 0.00 0.00 0.00 84 1015.1
20260507211104 66 257 12.0 14.0 0.00 0.00 0.00 84 1015.2
20260507210605 66 256 11.0 13.0 0.00 0.00 0.00 84 1015.2
20260507210104 65 255 10.0 12.0 0.00 0.00 0.00 83 1015.3
20260507205604 66 256 9.0 12.0 0.00 0.00 0.00 83 1015.3
20260507205104 66 251 10.0 13.0 0.00 0.00 0.00 82 1015.4
20260507204603 66 255 10.0 12.0 0.00 0.00 0.00 82 1015.4
20260507204104 66 254 9.0 12.0 0.00 0.00 0.00 82 1015.4
20260507203604 66 257 9.0 12.0 0.00 0.00 0.00 83 1015.5
20260507203103 66 249 9.0 12.0 0.00 0.00 0.00 82 1015.5
20260507202603 66 252 10.0 13.0 0.00 0.00 0.00 83 1015.5
20260507202104 65 257 10.0 12.0 0.00 0.00 0.00 83 1015.5
20260507201604 65 256 9.0 12.0 0.00 0.00 0.00 83 1015.6
20260507201103 65 256 9.0 12.0 0.00 0.00 0.00 83 1015.6
20260507200603 65 265 9.0 12.0 0.00 0.00 0.00 83 1015.7
20260507200104 66 260 10.0 12.0 0.00 0.00 0.00 82 1015.8
20260507195104 65 261 9.0 12.0 0.00 0.00 0.00 82 1015.9
20260507194603 66 251 9.0 12.0 0.00 0.00 0.00 82 1015.9
20260507194104 66 257 8.0 12.0 0.00 0.00 0.00 82 1016.0
20260507193604 65 250 10.0 12.0 0.00 0.00 0.00 81 1016.0
20260507193103 66 249 8.0 12.0 0.00 0.00 0.00 82 1016.1
20260507192604 65 252 7.0 12.0 0.00 0.00 0.00 82 1016.1
20260507191105 65 252 9.0 13.0 0.00 0.00 0.00 81 1016.2
20260507190605 65 241 7.0 12.0 0.00 0.00 0.00 81 1016.3
20260507190105 65 239 7.0 12.0 0.00 0.00 0.00 82 1016.3
20260507185605 65 236 7.0 12.0 0.00 0.00 0.00 83 1016.4
20260507185105 65 238 9.0 12.0 0.00 0.00 0.00 83 1016.4
20260507184605 65 247 7.0 12.0 0.00 0.00 0.00 83 1016.5
20260507183105 65 247 7.0 12.0 0.00 0.00 0.00 84 1016.6
20260507182606 65 253 8.0 12.0 0.00 0.00 0.00 84 1016.6
20260507182106 65 250 9.0 12.0 0.00 0.00 0.00 84 1016.6
20260507181105 64 257 9.0 12.0 0.00 0.00 0.00 85 1016.6
20260507180605 64 258 8.0 12.0 0.00 0.00 0.00 85 1016.6
20260507180105 64 258 9.0 12.0 0.00 0.00 0.00 85 1016.6
20260507175604 64 259 8.0 10.0 0.00 0.00 0.00 85 1016.6
20260507175105 64 256 9.0 12.0 0.00 0.00 0.00 85 1016.6
20260507174106 64 258 7.0 12.0 0.00 0.00 0.00 85 1016.7
20260507173605 64 262 9.0 12.0 0.00 0.00 0.00 84 1016.7
20260507173105 64 259 9.0 10.0 0.00 0.00 0.00 84 1016.7
20260507172606 64 259 7.0 9.0 0.00 0.00 0.00 83 1016.7
20260507172105 65 256 9.0 12.0 0.00 0.00 0.00 83 1016.7
20260507171105 65 241 7.0 10.0 0.00 0.00 0.00 81 1016.6
20260507170605 65 202 3.0 7.0 0.00 0.00 0.00 82 1016.7
20260507170105 65 242 7.0 9.0 0.00 0.00 0.00 81 1016.7
20260507165604 65 252 6.0 9.0 0.00 0.00 0.00 81 1016.7
20260507165106 65 226 3.0 8.0 0.00 0.00 0.00 82 1016.7
20260507164605 65 248 5.0 8.0 0.00 0.00 0.00 82 1016.7
20260507164105 65 248 5.0 8.0 0.00 0.00 0.00 82 1016.7
20260507163606 65 247 5.0 8.0 0.00 0.00 0.00 81 1016.7
20260507163105 65 243 5.0 8.0 0.00 0.00 0.00 80 1016.8
20260507162104 65 251 2.0 5.0 0.00 0.00 0.00 83 1016.8
20260507161605 65 240 2.0 7.0 0.00 0.00 0.00 82 1016.7
20260507161105 65 228 4.0 8.0 0.00 0.00 0.00 82 1016.8
20260507160606 65 242 3.0 5.0 0.00 0.00 0.00 83 1016.8
20260507160106 65 239 3.0 5.0 0.00 0.00 0.00 83 1016.8
20260507155605 65 198 1.0 3.0 0.00 0.00 0.00 84 1016.8
20260507155104 65 148 2.0 5.0 0.00 0.00 0.00 84 1016.9
20260507154605 65 246 3.0 5.0 0.00 0.00 0.00 84 1016.9
20260507153605 64 239 3.0 6.0 0.00 0.00 0.00 84 1016.8
20260507153105 65 253 2.0 3.0 0.00 0.00 0.00 85 1016.8
20260507152605 65 242 3.0 6.0 0.00 0.00 0.00 85 1016.9
20260507152105 64 16 1.0 3.0 0.00 0.00 0.00 85 1016.9
20260507151606 64 16 1.0 3.0 0.00 0.00 0.00 86 1016.9
20260507151105 64 15 2.0 3.0 0.00 0.00 0.00 87 1017.0
20260507150104 64 8 1.0 2.0 0.00 0.00 0.00 88 1016.9
20260507145605 63 8 1.0 2.0 0.00 0.00 0.00 89 1016.9
20260507145105 63 8 1.0 2.0 0.00 0.00 0.00 89 1016.9
20260507144604 63 8 1.0 2.0 0.00 0.00 0.00 90 1016.8
20260507143105 62 8 1.0 2.0 0.00 0.00 0.00 91 1016.6
20260507142104 62 359 1.0 2.0 0.00 0.00 0.00 92 1016.6
20260507141605 61 359 0.0 2.0 0.00 0.00 0.00 92 1016.6
20260507141105 61 359 2.0 2.0 0.00 0.00 0.00 93 1016.6
20260507140605 61 359 1.0 1.0 0.00 0.00 0.00 93 1016.5
20260507140106 60 359 0.0 2.0 0.00 0.00 0.00 94 1016.5
20260507135605 59 359 1.0 1.0 0.00 0.00 0.00 94 1016.4
20260507134605 58 359 0.0 1.0 0.00 0.00 0.00 94 1016.3
20260507134105 58 359 1.0 1.0 0.00 0.00 0.00 93 1016.3
20260507133605 58 359 0.0 1.0 0.00 0.00 0.00 93 1016.2
20260507133105 58 359 1.0 2.0 0.00 0.00 0.00 93 1016.1
20260507131604 57 359 0.0 0.0 0.00 0.00 0.00 93 1016.1
20260507130604 57 359 0.0 1.0 0.00 0.00 0.00 93 1016.0
20260507130105 57 359 0.0 0.0 0.00 0.00 0.00 92 1016.0
20260507125604 57 359 0.0 1.0 0.00 0.00 0.00 92 1015.9
20260507125105 57 359 1.0 1.0 0.00 0.00 0.00 93 1015.9
20260507124605 57 359 0.0 0.0 0.00 0.00 0.00 92 1015.9
20260507123604 57 359 0.0 0.0 0.00 0.00 0.00 92 1015.9
20260507123105 57 359 0.0 0.0 0.00 0.00 0.00 92 1015.9
20260507122604 57 359 0.0 0.0 0.00 0.00 0.00 92 1015.9
20260507122105 57 359 0.0 0.0 0.00 0.00 0.00 92 1015.9
20260507121604 57 359 0.0 0.0 0.00 0.00 0.00 92 1015.9
20260507120604 57 359 0.0 0.0 0.00 0.00 0.00 92 1015.9
20260507120104 57 359 0.0 0.0 0.00 0.00 0.00 92 1016.0
20260507115605 58 359 0.0 1.0 0.00 0.00 0.00 92 1016.0
20260507115105 58 359 0.0 1.0 0.00 0.00 0.00 92 1016.0
20260507114606 58 359 1.0 1.0 0.00 0.00 0.00 92 1016.0
20260507114105 58 359 0.0 1.0 0.00 0.00 0.00 92 1016.0
20260507113604 58 359 0.0 1.0 0.00 0.00 0.00 91 1016.0
20260507113105 58 359 0.0 1.0 0.00 0.00 0.00 91 1016.0
20260507112604 58 359 1.0 2.0 0.00 0.00 0.00 91 1016.1
20260507112105 58 359 0.0 1.0 0.00 0.00 0.00 91 1016.0
20260507111605 58 359 0.0 1.0 0.00 0.00 0.00 91 1016.1
20260507111105 58 359 0.0 0.0 0.00 0.00 0.00 91 1016.1
20260507110604 58 359 0.0 0.0 0.00 0.00 0.00 91 1016.1
20260507110105 58 359 0.0 0.0 0.00 0.00 0.00 91 1016.2
20260507105605 58 359 0.0 1.0 0.00 0.00 0.00 91 1016.2
20260507105105 58 359 0.0 0.0 0.00 0.00 0.00 90 1016.3
20260507104104 58 359 0.0 0.0 0.00 0.00 0.00 90 1016.3
20260507103604 58 359 0.0 1.0 0.00 0.00 0.00 91 1016.3
20260507102605 58 359 1.0 1.0 0.00 0.00 0.00 90 1016.4
20260507102105 58 359 1.0 1.0 0.00 0.00 0.00 90 1016.4
20260507101604 59 359 1.0 1.0 0.00 0.00 0.00 90 1016.4
20260507100104 59 359 0.0 1.0 0.00 0.00 0.00 90 1016.4
20260507095105 59 359 0.0 1.0 0.00 0.00 0.00 90 1016.4
20260507094605 59 359 1.0 1.0 0.00 0.00 0.00 90 1016.4
20260507094104 59 359 0.0 0.0 0.00 0.00 0.00 90 1016.5
20260507093604 59 359 0.0 1.0 0.00 0.00 0.00 90 1016.6
20260507093105 59 359 1.0 1.0 0.00 0.00 0.00 89 1016.6
20260507092605 59 359 0.0 1.0 0.00 0.00 0.00 89 1016.6
20260507092106 60 359 0.0 1.0 0.00 0.00 0.00 89 1016.7
20260507091604 60 359 0.0 1.0 0.00 0.00 0.00 89 1016.8
20260507091105 60 359 0.0 1.0 0.00 0.00 0.00 89 1016.8
20260507090604 60 359 1.0 2.0 0.00 0.00 0.00 89 1016.9
20260507090105 60 359 0.0 1.0 0.00 0.00 0.00 88 1016.9
20260507085605 60 359 0.0 0.0 0.00 0.00 0.00 88 1016.9
20260507085104 60 359 0.0 1.0 0.00 0.00 0.00 88 1017.0
20260507084605 60 359 0.0 1.0 0.00 0.00 0.00 88 1017.0
20260507084104 60 359 1.0 2.0 0.00 0.00 0.00 89 1017.0
20260507083604 60 359 1.0 2.0 0.00 0.00 0.00 89 1017.0
20260507083104 60 359 1.0 1.0 0.00 0.00 0.00 88 1017.1
20260507082605 61 359 0.0 1.0 0.00 0.00 0.00 88 1017.1
20260507082104 61 359 0.0 1.0 0.00 0.00 0.00 88 1017.1
20260507081605 61 359 0.0 2.0 0.00 0.00 0.00 88 1017.2
20260507081104 61 359 1.0 2.0 0.00 0.00 0.00 88 1017.2
20260507080605 61 359 1.0 2.0 0.00 0.00 0.00 88 1017.3
20260507080104 61 359 0.0 3.0 0.00 0.00 0.00 88 1017.3
20260507075604 61 359 1.0 3.0 0.00 0.00 0.00 88 1017.2
20260507075105 61 359 2.0 3.0 0.00 0.00 0.00 88 1017.3
20260507074104 61 359 1.0 2.0 0.00 0.00 0.00 87 1017.3
20260507073605 61 359 1.0 2.0 0.00 0.00 0.00 87 1017.3
20260507073105 61 359 0.0 3.0 0.00 0.00 0.00 87 1017.4
20260507072605 61 359 1.0 3.0 0.00 0.00 0.00 87 1017.4
20260507072104 61 359 1.0 3.0 0.00 0.00 0.00 87 1017.4
20260507071105 61 359 1.0 2.0 0.00 0.00 0.00 87 1017.4
20260507070605 61 359 1.0 3.0 0.00 0.00 0.00 87 1017.4
20260507070104 61 359 2.0 3.0 0.00 0.00 0.00 87 1017.4
20260507065605 61 359 1.0 3.0 0.00 0.00 0.00 86 1017.4
20260507065106 61 358 1.0 3.0 0.00 0.00 0.00 86 1017.4
20260507064604 61 356 1.0 3.0 0.00 0.00 0.00 86 1017.5
20260507064104 61 356 1.0 2.0 0.00 0.00 0.00 86 1017.5
20260507063605 61 355 1.0 3.0 0.00 0.00 0.00 86 1017.5
20260507063105 61 357 2.0 3.0 0.00 0.00 0.00 87 1017.5
20260507062604 61 355 2.0 3.0 0.00 0.00 0.00 87 1017.4
20260507061104 61 352 2.0 3.0 0.00 0.00 0.00 88 1017.4
20260507060105 61 265 2.0 3.0 0.00 0.00 0.00 88 1017.5
20260507055604 61 270 0.0 2.0 0.00 0.00 0.00 88 1017.5
20260507055105 62 271 0.0 1.0 0.00 0.00 0.00 89 1017.4
20260507054604 62 274 0.0 1.0 0.00 0.00 0.00 89 1017.4
20260507054105 62 267 0.0 2.0 0.00 0.00 0.00 89 1017.5
20260507053604 62 271 1.0 2.0 0.00 0.00 0.00 89 1017.5
20260507053104 62 268 1.0 2.0 0.00 0.00 0.00 89 1017.5
20260507052604 62 266 1.0 3.0 0.00 0.00 0.00 89 1017.4
20260507052105 62 262 2.0 3.0 0.00 0.00 0.00 89 1017.5
20260507051604 62 262 3.0 6.0 0.00 0.00 0.00 89 1017.5
20260507051104 62 264 4.0 7.0 0.00 0.00 0.00 89 1017.4
20260507050605 62 265 4.0 7.0 0.00 0.00 0.00 88 1017.5
20260507050105 62 263 5.0 8.0 0.00 0.00 0.00 87 1017.5
20260507045605 63 262 4.0 7.0 0.00 0.00 0.00 87 1017.5
20260507045104 63 262 3.0 6.0 0.00 0.00 0.00 87 1017.5
20260507044604 63 262 3.0 6.0 0.00 0.00 0.00 87 1017.4
20260507044104 63 267 3.0 6.0 0.00 0.00 0.00 86 1017.4
20260507043605 63 262 4.0 7.0 0.00 0.00 0.00 86 1017.3
20260507043104 63 262 3.0 6.0 0.00 0.00 0.00 84 1017.3
20260507042605 64 262 3.0 6.0 0.00 0.00 0.00 83 1017.3
20260507042104 64 263 6.0 7.0 0.00 0.00 0.00 82 1017.2
20260507041605 64 293 1.0 3.0 0.00 0.00 0.00 79 1017.2
20260507041105 64 293 2.0 3.0 0.00 0.00 0.00 79 1017.1
20260507040604 64 293 2.0 3.0 0.00 0.00 0.00 78 1017.1
20260507040105 64 294 2.0 3.0 0.00 0.00 0.00 78 1017.1
20260507035104 65 338 1.0 5.0 0.00 0.00 0.00 76 1017.0
20260507034605 65 334 3.0 7.0 0.00 0.00 0.00 76 1016.9
20260507034104 65 304 2.0 3.0 0.00 0.00 0.00 76 1016.9
20260507033604 65 281 3.0 7.0 0.00 0.00 0.00 77 1016.9
20260507032107 64 4 2.0 3.0 0.00 0.00 0.00 75 1016.8
20260507031605 64 352 1.0 3.0 0.00 0.00 0.00 75 1016.6
20260507031104 64 354 1.0 5.0 0.00 0.00 0.00 77 1016.6
20260507030604 64 355 2.0 3.0 0.00 0.00 0.00 77 1016.5
20260507025604 65 261 1.0 3.0 0.00 0.00 0.00 80 1016.5
20260507025105 65 257 1.0 5.0 0.00 0.00 0.00 80 1016.5
20260507024604 65 244 4.0 7.0 0.00 0.00 0.00 78 1016.5
20260507023604 64 293 2.0 8.0 0.00 0.00 0.00 81 1016.3
20260507023103 64 265 4.0 6.0 0.00 0.00 0.00 81 1016.2
20260507022604 64 266 4.0 6.0 0.00 0.00 0.00 82 1016.3
20260507022104 64 266 5.0 8.0 0.00 0.00 0.00 82 1016.2
20260507021604 64 267 6.0 9.0 0.00 0.00 0.00 82 1016.1
20260507021105 64 257 7.0 10.0 0.00 0.00 0.00 82 1016.1
20260507020604 64 260 7.0 9.0 0.00 0.00 0.00 82 1016.1
20260507020105 64 266 7.0 10.0 0.00 0.00 0.00 83 1016.0
20260507015604 64 255 7.0 10.0 0.00 0.00 0.00 83 1016.1
20260507015104 64 260 7.0 10.0 0.00 0.00 0.00 84 1016.0
20260507014604 64 255 8.0 12.0 0.00 0.00 0.00 84 1016.0
20260507014104 64 263 8.0 12.0 0.00 0.00 0.00 84 1015.9
20260507013604 65 249 8.0 12.0 0.00 0.00 0.00 84 1015.9
20260507012104 64 263 8.0 12.0 0.00 0.00 0.00 84 1015.8
20260507011604 64 262 8.0 12.0 0.00 0.00 0.00 84 1015.8
20260507011104 64 259 10.0 13.0 0.00 0.00 0.00 84 1015.8
20260507010105 65 261 9.0 15.0 0.00 0.00 0.00 85 1015.6
20260507005604 65 254 9.0 14.0 0.00 0.00 0.00 85 1015.6
20260507005104 65 258 10.0 14.0 0.00 0.00 0.00 85 1015.6
20260507004604 65 262 11.0 16.0 0.00 0.00 0.00 85 1015.6
20260507004104 65 256 11.0 17.0 0.00 0.00 0.00 85 1015.6
20260507003604 65 254 11.0 16.0 0.00 0.00 0.00 85 1015.7
20260507003105 65 258 13.0 18.0 0.00 0.00 0.00 84 1015.7
20260507002604 65 254 13.0 17.0 0.00 0.00 0.00 84 1015.6
20260507001103 65 253 13.0 18.0 0.00 0.00 0.00 83 1015.6
20260507000604 65 259 14.0 17.0 0.00 0.00 0.00 83 1015.5
20260507000105 65 256 12.0 16.0 0.00 0.00 0.00 82 1015.5
20260506235603 65 259 11.0 18.0 0.00 0.00 0.00 82 1015.6
20260506235104 65 254 11.0 15.0 0.00 0.00 0.00 82 1015.6
20260506234604 65 261 12.0 17.0 0.00 0.00 0.00 82 1015.6
20260506234104 65 257 13.0 16.0 0.00 0.00 0.00 82 1015.5
20260506233604 65 260 10.0 17.0 0.00 0.00 0.00 83 1015.6
20260506233104 65 262 12.0 17.0 0.00 0.00 0.00 83 1015.6
20260506232604 65 257 13.0 17.0 0.00 0.00 0.00 82 1015.5